Preview of NWS' New Version of Forecast
This preview is not operational and should not be used for support decisions.
Latest weather observations around

Hayward, Hayward Municipal Airport (KHYR)

Using English Units (Switch to International System of Units)
Date/ Time (CDT) Wind (mph) Vis. (mi) Weather Sky Cond. Temp (°F) Rel. Humidity Wind Chill (°F) Heat Index (°F) Pressure Precip. (in)
Air Dwpt 6 hour Altimeter (inHg) Sea level (inHg) 1 hr 3 hr 6 hr
Max Min
Jun 19 05:53 Calm 10 Mostly Cloudy BKN100 52 51     97%     29.9 29.9      
Jun 19 04:53 NNE 6 10 Cloudy OVC100 51 51     100%     29.89 29.9      
Jun 19 03:53 NE 3 10 Cloudy OVC100 52 51     97%     29.9 29.9      
Jun 19 02:53 Calm 10 Cloudy OVC100 54 52     93%     29.91 29.91      
Jun 19 01:53 NNE 5 10 Cloudy OVC100 54 52     93%     29.92 29.92      
Jun 19 00:53 NE 5 10 Cloudy OVC100 53 51     93%     29.94 29.94      
Jun 18 23:53 NNE 5 10 Mostly Clear FEW100 54 52     93%     29.93 29.93      
Jun 18 22:53 Calm 10 Cloudy OVC100 55 54     96%     29.93 29.93      
Jun 18 21:53 Calm 10 Mostly Clear FEW100 56 55     97%     29.93 29.93      
Jun 18 20:53 Calm 10 Clear CLR 62 57     84%     29.92 29.92      
Jun 18 19:53 N 3 10 Cloudy SCT039 BKN070 OVC080 66 56     70%     29.91 29.91      
Jun 18 18:53 E 5 10 Cloudy FEW041 OVC090 67 55     66%     29.91 29.91      
Jun 18 17:53 3 10 Cloudy FEW046 OVC090 69 53     57%     29.91 29.91      
Jun 18 16:53 NNE 6 10 Cloudy FEW040 OVC090 70 53     55%     29.92 29.93      
Jun 18 15:53 N 6 10 Cloudy OVC085 69 53     57%     29.93 29.94      
Jun 18 14:53 3 10 Cloudy FEW060 OVC080 67 53     61%     29.94 29.94      
Jun 18 13:53 Calm 10 Cloudy OVC080 66 52     61%     29.95 29.96      
Jun 18 12:53 NNW 3 10 Cloudy OVC060 66 52     61%     29.95 29.96      
Jun 18 11:53 WNW 3 10 Cloudy SCT030 OVC055 65 53     65%     29.97 29.96      
Jun 18 11:45 Calm 10 Cloudy BKN028 OVC060 65 53     65%     29.97        
Jun 18 11:09 3 10 Cloudy FEW024 BKN046 OVC060 64 53     67%     29.97        
Jun 18 10:53 Calm 10 Cloudy BKN022 BKN031 OVC046 64 53     67%     29.97 29.97      
Jun 18 10:31 NNW 5 10 Cloudy BKN022 OVC060 63 54     72%     29.97        
Jun 18 09:53 Calm 10 Cloudy OVC055 62 54     75%     29.97 29.97      
Jun 18 08:53 3 10 Cloudy OVC055 60 54     80%     29.97 29.97      
Jun 18 07:53 SSW 3 10 Cloudy OVC055 55 54     96%     29.96 29.96      
Jun 18 07:26 Calm 7 Mostly Cloudy FEW002 BKN055 54 54     100%     29.96        
Jun 18 07:01 Calm 6 Fog/Mist OVC002 53 53     100%     29.97        
Jun 18 06:53 Calm 2 Fog/Mist OVC002 52 52     100%     29.97 29.97      
Jun 18 06:45 Calm 1.75 Fog/Mist OVC002 52 52     100%     29.96        
Jun 18 06:27 Calm 7 Cloudy BKN002 OVC050 50 50     100%     29.97        
Jun 18 06:24 Calm 2 Fog/Mist SCT002 OVC055 50 50     100%     29.97        
Jun 18 06:21 Calm 0.5 Fog SCT002 OVC050 50 50     100%     29.97        
Jun 18 05:53 Calm 0.25 Fog VV002 49 49     100%     29.97 29.98      
Jun 18 04:53 Calm 0.25 Fog VV001 47 47     100%     29.97 29.97      
Jun 18 03:53 Calm 0.25 Fog BKN001 OVC049 49 49     100%     29.97 29.97      
Jun 18 03:12 Calm 3 Fog/Mist FEW001 BKN041 OVC050 50 50     100%     29.98        
Jun 18 03:10 Calm 1.5 Fog/Mist FEW001 BKN041 OVC050 50 50     100%     29.98        
Jun 18 02:53 Calm 0.5 Fog SCT001 BKN048 49 49     100%     29.98 29.98      
Jun 18 02:51 Calm 0.5 Fog BKN001 BKN048 48 48     100%     29.98        
Jun 18 02:38 Calm 0.5 Fog SCT002 SCT048 49 49     100%     29.97        
Jun 18 02:31 Calm 1 Fog/Mist SCT002 BKN048 50 49     96%     29.97        
Jun 18 02:25 Calm 1.75 Fog/Mist BKN001 50 49     96%     29.97        
Jun 18 02:14 Calm 4 Fog/Mist OVC001 52 51     97%     29.98        
Jun 18 02:07 Calm 2.5 Fog/Mist BKN001 OVC060 52 51     97%     29.98        
Jun 18 01:59 Calm 1 Fog/Mist BKN001 OVC065 52 51     97%     29.98        
Jun 18 01:53 Calm 2 Fog/Mist BKN001 OVC060 52 51     97%     29.98 29.98      
Jun 18 01:51 Calm 3 Fog/Mist BKN002 OVC060 52 52     100%     29.98        
Jun 18 01:48 Calm 2 Fog/Mist SCT002 OVC060 52 52     100%     29.98        
Jun 18 01:46 Calm 1 Fog/Mist FEW002 OVC060 52 51     97%     29.98        
Jun 18 01:28 Calm 0.75 Fog/Mist BKN060 52 52     100%     29.99        
Jun 18 01:18 Calm 1.75 Fog/Mist FEW043 SCT060 54 53     97%     29.98        
Jun 18 00:53 Calm 10 Cloudy OVC043 56 54     93%     29.98 29.98     0
Jun 17 23:53 Calm 10 Mostly Cloudy BKN045 58 56     93%     29.98 29.98      
Jun 17 22:53 NNE 3 10 Cloudy FEW024 BKN042 OVC055 61 57     87%     29.98 29.98      
Jun 17 22:46 NNE 3 10 Cloudy FEW026 BKN043 OVC060 61 58     90%     29.98        
Jun 17 22:22 Calm 10 Mostly Cloudy FEW013 BKN025 BKN060 63 60     90%     29.98        
Jun 17 21:53 Calm 10 Mostly Cloudy FEW030 SCT036 BKN065 61 58     90%     29.97 29.97   0  
Jun 17 20:53 SSW 5 10 Partly Cloudy FEW019 SCT024 SCT036 64 59     84%     29.96 29.96      
Jun 17 20:00 Calm 10 Mostly Cloudy BKN023 BKN042 66 59     78%     29.97        
Jun 17 19:53 Calm 10 Mostly Cloudy SCT023 BKN044 BKN055 65 59     81%     29.96 29.96 0    
Jun 17 19:26 S 5 10 Cloudy SCT024 BKN030 OVC075 67 59     76%     29.97        
Jun 17 19:14 SSW 7 10 Cloudy BKN025 BKN031 OVC060 66 58     75%     29.97        
Jun 17 18:53 SSW 8 10 Cloudy SCT031 BKN045 OVC060 67 58     73%     29.96 29.96      
Jun 17 17:53 SSW 8 10 Mostly Cloudy BKN070 67 58     73%     29.97 29.97      
Jun 17 16:53 SSW 8 10 Mostly Clear FEW026 69 57     65%     29.97 29.97      
Jun 17 15:53 SSW 10 10 Partly Cloudy FEW035 SCT110 70 57     63%     29.98 29.99      
Jun 17 14:53 WSW 8 10 Mostly Cloudy FEW022 BKN048 69 58     68%     29.99 30      
Jun 17 14:50 SSW 9 10 Cloudy SCT021 OVC048 68 59     73%     29.99        
Jun 17 14:00 5 10 Cloudy BKN022 BKN026 OVC042 66 58     75%     30.01        
Jun 17 13:53 SSW 5 10 Cloudy SCT022 BKN035 OVC042 66 57     73%     30 30.01      
Jun 17 13:45 SSW 8 10 Cloudy BKN022 OVC033 66 57     73%     30        
Jun 17 13:26 Calm 10 Cloudy SCT025 OVC032 65 57     76%     30        
Jun 17 12:53 6 10 Cloudy OVC023 64 57     78%     30 30.01      
Jun 17 12:28 SSW 6 10 Cloudy SCT015 OVC023 65 57     76%     30.01        
Jun 17 11:53 S 7 10 Cloudy OVC013 62 56     80%     30.02 30.03      
Jun 17 10:53 S 6 10 Cloudy OVC012 61 56     83%     30.01 30.02      
Jun 17 09:53 SSE 9 10 Cloudy OVC013 59 54     83%     30 30.01      
Jun 17 08:53 S 8 10 Cloudy BKN013 OVC031 58 53     84%     30 30.01      
Jun 17 08:46 SSW 6 10 Cloudy BKN014 OVC032 58 52     81%     30.01        
Jun 17 07:53 S 6 10 Partly Cloudy SCT010 56 52     87%     30.01 30.01      
Jun 17 06:53 S 7 10 Clear CLR 55 52     89%     30 30.01     0
Jun 17 05:53 Calm 10 Mostly Cloudy BKN080 53 50     89%     29.99 29.99      
Jun 17 04:53 SE 3 10 Cloudy OVC075 50 49     96%     29.97 29.98 0    
Jun 17 03:53 Calm 10 Cloudy BKN095 OVC120 48 47     96%     29.99 29.99      
Jun 17 02:53 Calm 10 Partly Cloudy SCT095 SCT120 46 44     93%     30 30      
Jun 17 01:53 Calm 10 Clear CLR 47 46     97%     29.99 29.99      
Jun 17 00:53 Calm 10 Clear   48 46     93%     29.98 29.99      
Jun 16 23:53 NNE 6 10 Clear CLR 49 47     93% 46   29.97 29.98      
Jun 16 22:53 Calm 10 Clear CLR 50 46     86%     29.97 29.98      
Jun 16 21:53 E 3 10 Clear CLR 52 47     83%     29.96 29.96      
Jun 16 20:53 NNE 7 10 Clear CLR 58 47     67%     29.94 29.94      
Jun 16 19:53 NE 7 10 Mostly Clear FEW090 63 48     58%     29.93 29.93      
Jun 16 18:53 NNE 11 10 Cloudy BKN080 OVC090 67 50     55%     29.92 29.93      
Jun 16 17:53 NNE 7 10 Mostly Cloudy BKN080 70 49     47%     29.92 29.92      
Jun 16 16:53 NNE 10 10 Clear CLR 72 47     41%   71 29.91 29.91      
Jun 16 15:53 Calm 10 Clear CLR 71 41     34%   69 29.91 29.91      
Jun 16 14:53 E 7 10 Mostly Cloudy BKN080 70 41     35%     29.92 29.92      
Jun 16 13:53 SSE 6 10 Cloudy OVC090 69 42     38%     29.93 29.93      
Jun 16 12:53 ESE 6 10 Mostly Cloudy BKN085 67 42     40%     29.94 29.94      
Jun 16 11:53 7 10 Mostly Cloudy BKN120 65        %     29.95 29.96      
Jun 16 10:53 Calm 10 Cloudy OVC110 63 43     48%     29.95 29.96      
Jun 16 09:53 E 6 10 Cloudy OVC100 59 42     53%     29.96 29.97      
Jun 16 08:53 6 10 Cloudy OVC110 57 43     59%     29.94 29.94      
Jun 16 07:53 E 7 10 Cloudy OVC095 54 43     66%     29.92 29.93      
Jun 16 06:53 NE 3 10 Cloudy OVC100 51 47     86%     29.93 29.94 0   0
Jun 16 05:53 NE 6 10 Cloudy OVC100 51 46     83%     29.92 29.92      
May 12 21:53 NE 3 10 Clear CLR 47 31     53% 46   30.09 30.11      
May 12 11:53 E 8 10 Clear CLR 62 29     28%     30.14 30.16      
May 11 10:53 ENE 9 10 Clear CLR 49 24     37% 45   30.1 30.12      
Jun 12 00:51 Calm 1.5 Fog/Mist OVC003 63 61     94%     29.81        
Jun 11 23:11 SSE 6 4 Fog/Mist BKN004 OVC023 62 61     96%     29.78        
Jun 11 23:03 SE 6 2 Fog/Mist BKN004 OVC023 61 60     97%     29.78        
Jun 11 22:25 Calm 1 Fog/Mist SCT002 BKN025 OVC037 61 60     97%     29.76        
Jun 11 20:53 Calm 10 Partly Cloudy SCT085 63 62     97%     29.73 29.72 0    
Jun 11 20:22 SE 6 10 Cloudy FEW007 BKN018 OVC024 64 62     93%     29.74   0    
Jun 11 18:53 5 10 Cloudy SCT043 SCT085 OVC100 64 62     93%     29.7 29.7 0   2
Notice The following observation data may not be complete
Jun 11 18:27   2.5 Heavy Rain and Fog/Mist FEW018 BKN034 OVC090          %         0    
Jun 11 17:09 NW 9 0.5 Clear   63 61     93%     29.82   0    
Jun 11 14:53 S 7 10 Light Rain FEW120 62 59     90%     29.77 29.77 0    
Jun 11 05:51 Calm 10 Clear CLR 52 48     87%     29.77        
Jun 11 00:53 Calm 10 Clear CLR 63 56     78%     29.7 29.68      
Jun 10 23:53 3 10 Clear CLR 74 57     56%   74 29.68 29.65      
Jun 10 17:53 SW 13 10 Mostly Cloudy FEW060 BKN080 BKN100 90 65     44%   92 29.45 29.42      
Jun 10 00:53 SSE 9 10 Partly Cloudy SCT090 70 53     55%     29.65 29.63      
Jun 09 14:53 Calm 10 Mostly Cloudy BKN075 78 43     29%   77 29.81 29.8      
Jun 08 09:53 5 10 Clear CLR 71 54     55%   70 29.87 29.86      
Jun 08 02:53 S 7 10 Clear CLR 64 51     63%     29.93 29.92      
Jun 06 12:53 6 10 Clear CLR 74 42     32%   73 30.15 30.16      
Jun 05 14:53 NE 13 10 Clear CLR 75 44     33%   74 30.05 30.04